Regional Weather Roundup
Issued by NWS

Home | Current Version | Previous Version | Graphics & Text | Print | Product List | Glossary On
Versions: 1 2 3 4 5 6 7 8 9 10 11 12 13 14 15 16 17 18 19 20 21 22 23 24 25 26 27 28 29 30 31 32 33 34 35 36 37 38 39 40 41 42 43 44 45 46 47 48 49 50
000
ASUS45 KSLC 222310
RWRUT

UTAH REGIONAL WEATHER ROUNDUP
NATIONAL WEATHER SERVICE SALT LAKE CITY UT
400 PM MST SAT NOV 22 2014

UTZ001>011-023>025-230000-

NORTHERN UTAH

CITY           SKY/WX    TMP DP  RH WIND       PRES   REMARKS
BRIGHAM CITY   CLOUDY    38  34  85 CALM      29.79F
HILL AFB       MIX PCPN  38  37  99 N16G23    29.78R WCI  28
LOGAN          CLOUDY    34  33  96 S8        29.78F WCI  27
OGDEN          LGT RAIN  38  36  92 N22G32    29.77R WCI  27
PROVO AIRPORT  CLOUDY    45  37  76 N9        29.78F
SALT LAKE CITY RAIN      40  38  93 N17       29.80R FOG     WCI  31
VERNAL         CLOUDY    39  23  52 CALM      29.79R
WENDOVER       CLOUDY    43  36  75 NW26G52   29.80R
HEBER CITY     MIX PCPN  36  34  93 E7        29.77F WCI  30

$$

UTZ012>022-026-027-230000-

SOUTHERN/CENTRAL UTAH

CITY           SKY/WX    TMP DP  RH WIND       PRES   REMARKS
BLANDING       MOCLDY    45  22  40 CALM      30.00F
BRYCE CANYON   CLOUDY    46  24  42 SW13      29.94F
CEDAR CITY     PTSUNNY   52  21  29 SW22G33   29.87F
DELTA          PTSUNNY   56  25  29 S29G36    29.72F
MILFORD        PTSUNNY   55  24  30 S26G37    29.82F
MOAB/CYNLANDS  PTCLDY    49  18  29 CALM      29.82F
PRICE          CLOUDY    33  29  85 CALM      29.85F
ST GEORGE      CLOUDY    63  25  23 CALM      29.93F
KANAB          CLOUDY    57  21  24 SW15G22   29.96F

$$

REGIONAL REPORTS     COLORADO/ARIZONA

CITY           SKY/WX    TMP DP  RH WIND       PRES   REMARKS
CRAIG, CO      CLOUDY    39  29  67 SW14      29.80F WCI  31
GRAND JUNCTION CLOUDY    42  21  43 SE3       29.85F
RIFLE          CLOUDY    41  32  70 NE7       29.86F
MONTROSE       CLOUDY    51  19  28 W9        29.87S
CORTEZ         CLEAR     49  20  31 SE6       29.94F
PAGE, AZ       NOT AVBL
GRAND CANYON   MOSUNNY   54  14  20 W15G24    30.01F
KINGMAN        SUNNY     64  21  19 SW21      29.98F
FLAGSTAFF      SUNNY     51  15  23 SW21G26   30.06R

$$

REGIONAL REPORTS    NEVADA/IDAHO/WYOMING

CITY           SKY/WX    TMP DP  RH WIND       PRES   REMARKS
LAS VEGAS, NV  MOSUNNY   71  27  19 S14G22    29.82F
ELY            LGT RAIN  42  32  67 W16G29    29.89R
ELKO           CLOUDY    39  32  76 N12G18    29.88R WCI  32
POCATELLO, ID  MOCLDY    39  36  89 SW24G36   29.72R WCI  28
BURLEY         CLOUDY    40  33  76 W16       29.76R WCI  31
EVANSTON, WY   SNOW      32  31  96 NW18G29   29.75R VSB 1/4 WCI  20
ROCK SPRINGS   LGT RAIN  38  33  82 SW12      29.65F WCI  30
KEMMERER       LGT SNOW  32  30  93 W21G33    29.71R VSB 3/4 WCI  20

$$


USA.gov is the U.S. government's official web portal to all federal, state and local government web resources and services.